WetterOnline ( https://www.wetteronline.de )

Wetter aktuell Glottertal

Aktuelles Wetter: Freiburg/Flugplatz (236m)

6-stündlich | Neueste Meldungen
Ortszeit Temperatur Wetter
Mi, 23.10. 2:00 12.6° C bedeckt
Di, 22.10. 20:00 13.1° C bedeckt
Di, 22.10. 14:00 13.7° C bedeckt
Di, 22.10. 8:00 11.7° C bedeckt
Di, 22.10. 2:00 12.7° C bedeckt
Mo, 21.10. 20:00 13.2° C Regen
Mo, 21.10. 14:00 15.6° C bedeckt
Mo, 21.10. 8:00 14.9° C bedeckt
Ortszeit Temperatur Wetter
Mi, 23.10. 7:00 12.4° C bedeckt
Mi, 23.10. 6:50 12.4° C bedeckt
Mi, 23.10. 6:40 12.4° C bedeckt
Mi, 23.10. 6:30 12.4° C bedeckt
Mi, 23.10. 6:20 12.4° C bedeckt
Mi, 23.10. 6:10 12.4° C bedeckt
Mi, 23.10. 6:00 12.4° C bedeckt
Mi, 23.10. 5:30 12.3° C bedeckt
Mi, 23.10. 5:00 12.4° C bedeckt
Mi, 23.10. 4:30 12.4° C bedeckt
Mi, 23.10. 4:00 12.5° C bedeckt
Ortszeit Relative Feuchte Sichtweite
Mi, 23.10. 2:00 96% 3.9 km
Di, 22.10. 20:00 94% 6 km
Di, 22.10. 14:00 87% 24 km
Di, 22.10. 8:00 98% 13 km
Di, 22.10. 2:00 97% 12 km
Mo, 21.10. 20:00 95% 27 km
Mo, 21.10. 14:00 70% 70 km
Mo, 21.10. 8:00 88% 55 km
Ortszeit Relative Feuchte Sichtweite
Mi, 23.10. 7:00 94% 6 km
Mi, 23.10. 6:50 94% -
Mi, 23.10. 6:40 95% -
Mi, 23.10. 6:30 95% 4.0 km
Mi, 23.10. 6:20 95% -
Mi, 23.10. 6:10 95% -
Mi, 23.10. 6:00 95% 4.9 km
Mi, 23.10. 5:30 95% 4.6 km
Mi, 23.10. 5:00 95% 4.8 km
Mi, 23.10. 4:30 95% 4.0 km
Mi, 23.10. 4:00 95% 3.9 km
Ortszeit Niederschlagsmenge Niederschlagsart
Mi, 23.10. 2:00 0.0 l/m2 in 6 Std. -
Di, 22.10. 20:00 0.1 l/m2 in 12 Std. -
Di, 22.10. 14:00 0.1 l/m2 in 6 Std. Sprühregen
Di, 22.10. 8:00 3 l/m2 in 12 Std. -
Di, 22.10. 2:00 3 l/m2 in 6 Std. Regen
Mo, 21.10. 20:00 2 l/m2 in 12 Std. Regen
Mo, 21.10. 14:00 0.1 l/m2 in 6 Std. Regen
Mo, 21.10. 8:00 1 l/m2 in 12 Std. Regen
Ortszeit Niederschlagsmenge Niederschlagsart
Mi, 23.10. 7:00 0.0 l/m2 in 1 Std. -
Mi, 23.10. 6:50 keine Meldung -
Mi, 23.10. 6:40 keine Meldung -
Mi, 23.10. 6:30 0.0 l/m2 in 1 Std. -
Mi, 23.10. 6:20 keine Meldung -
Mi, 23.10. 6:10 keine Meldung -
Mi, 23.10. 6:00 0.0 l/m2 in 1 Std. -
Mi, 23.10. 5:30 0.0 l/m2 in 1 Std. -
Mi, 23.10. 5:00 0.0 l/m2 in 1 Std. -
Mi, 23.10. 4:30 0.0 l/m2 in 1 Std. -
Mi, 23.10. 4:00 0.0 l/m2 in 1 Std. -
Ortszeit Stärke Spitze Richtung
km/h Bft. km/h Grad Sektor
Mi, 23.10. 2:00 6 1 11 20° N
Di, 22.10. 20:00 9 2 17 340° N
Di, 22.10. 14:00 7 2 14 350° N
Di, 22.10. 8:00 2 1 9 260° W
Di, 22.10. 2:00 0 0 14 - -
Mo, 21.10. 20:00 4 1 14 60° NO
Mo, 21.10. 14:00 7 2 25 220° SW
Mo, 21.10. 8:00 9 2 22 240° SW
Ortszeit Stärke Spitze Richtung
km/h Bft. km/h Grad Sektor
Mi, 23.10. 7:00 4 1 7 340° N
Mi, 23.10. 6:50 4 1 - 340° N
Mi, 23.10. 6:40 4 1 - 30° NO
Mi, 23.10. 6:30 2 1 4 340° N
Mi, 23.10. 6:20 2 1 - 340° N
Mi, 23.10. 6:10 4 1 - 280° W
Mi, 23.10. 6:00 6 1 7 260° W
Mi, 23.10. 5:30 4 1 7 360° N
Mi, 23.10. 5:00 4 1 7 310° NW
Mi, 23.10. 4:30 4 1 7 350° N
Mi, 23.10. 4:00 4 1 7 10° N
Ortszeit Untergrenze Bedeckung Gattung
total tief tief mittel hoch
Mi, 23.10. 2:00 60 m 8/8 8/8 - - -
Di, 22.10. 20:00 180 m 8/8 8/8 - - -
Di, 22.10. 14:00 240 m 8/8 8/8 - - -
Di, 22.10. 8:00 60 m 8/8 8/8 - - -
Di, 22.10. 2:00 90 m 8/8 8/8 - - -
Mo, 21.10. 20:00 2700 m 8/8 8/8 - - -
Mo, 21.10. 14:00 1350 m 8/8 8/8 - - -
Mo, 21.10. 8:00 1230 m 8/8 8/8 - - -
Ortszeit Bedeckungsgrad in Achtel und Wolkenuntergrenze
Mi, 23.10. 7:00 8(180m)
Mi, 23.10. 6:50 8(180m)
Mi, 23.10. 6:40 8(150m)
Mi, 23.10. 6:30 8(180m)
Mi, 23.10. 6:20 8(180m)
Mi, 23.10. 6:10 8(180m)
Mi, 23.10. 6:00 8(210m)
Mi, 23.10. 5:30 5(90m) 8(240m)
Mi, 23.10. 5:00 6(120m) 8(240m)
Mi, 23.10. 4:30 2(60m) 8(240m)
Mi, 23.10. 4:00 7(120m) 8(300m)
Ortszeit Luftdruck NN (hPa) Tendenz (hPa in 3 Std.)
Mi, 23.10. 2:00 1019 - 2,3
Di, 22.10. 20:00 1022 - 0,3
Di, 22.10. 14:00 1024 - 1,0
Di, 22.10. 8:00 1023 0,0
Di, 22.10. 2:00 1024 + 0,1
Mo, 21.10. 20:00 1022 + 1,2
Mo, 21.10. 14:00 1020 + 1,4
Mo, 21.10. 8:00 1017 + 2,5
Ortszeit Luftdruck NN (hPa) Tendenz (hPa in 3 Std.)
Mi, 23.10. 7:00 1017 - 1,1
Mi, 23.10. 6:50 1017 keine Meldung
Mi, 23.10. 6:40 1017 keine Meldung
Mi, 23.10. 6:30 1017 - 1,3
Mi, 23.10. 6:20 1017 keine Meldung
Mi, 23.10. 6:10 1017 keine Meldung
Mi, 23.10. 6:00 1017 - 1,5
Mi, 23.10. 5:30 1017 - 1,9
Mi, 23.10. 5:00 1018 - 1,5
Mi, 23.10. 4:30 1018 - 1,5
Mi, 23.10. 4:00 1018 - 1,9
Ortszeit Schneehöhe (cm)
Mi, 23.10. 2:00 0
Di, 22.10. 20:00 0
Di, 22.10. 14:00 0
Di, 22.10. 8:00 0
Di, 22.10. 2:00 0
Mo, 21.10. 20:00 0
Mo, 21.10. 14:00 0
Mo, 21.10. 8:00 0
Ortszeit Schneehöhe (cm)
Mi, 23.10. 7:00 0
Mi, 23.10. 6:50 0
Mi, 23.10. 6:40 0
Mi, 23.10. 6:30 0
Mi, 23.10. 6:20 0
Mi, 23.10. 6:10 0
Mi, 23.10. 6:00 0
Mi, 23.10. 5:30 0
Mi, 23.10. 5:00 0
Mi, 23.10. 4:30 0
Mi, 23.10. 4:00 0
Link zu dieser Seite / Seite empfehlen

Das Wetter in ...